This demonstration page uses our WeatherBlox Daily Observations layout. Learn more.

Left ArrowRight Arrow

39.51506, -84.39828

Hourly Observations for September 8, 2020

Temp ( °F °C ) Dew Point ( °F °C ) Humidity (%) Winds ( mph kmh ) Pressure ( in mb ) Visibility ( mi km ) Precip ( " mm )
12:15 am 00:15 Clear 77 24.8 67 19.2 71 71 S 8 13 29.93 1014 10 16.0934 0 0
12:35 am 00:35 Clear 76 24.4 67 19.4 74 74 SSW 5 7 29.94 1014 10 16.0934 0 0
12:55 am 00:55 Partly Cloudy 76 24.2 67 19.3 74 74 S 3 6 29.95 1014 10 16.0934 0 0
1:15 am 01:15 Partly Cloudy 76 24.5 66 19.1 72 72 S 6 9 29.95 1014 10 16.0934 0 0
1:35 am 01:35 Mostly Cloudy 75 23.9 67 19.2 75 75 ENE 3 6 29.98 1015 10 16.0934 0 0
1:55 am 01:55 Mostly Cloudy with Nearby Thunderstorms 74 23.4 67 19.5 79 79 ENE 5 7 29.99 1015 10 16.0934 0 0
2:15 am 02:15 Partly Cloudy 73 22.6 67 19.4 82 82 ENE 3 6 29.99 1016 10 16.0934 0 0
2:35 am 02:35 Clear 71 21.9 67 19.4 86 86 Calm 29.99 1016 10 16.0934 0 0
2:55 am 02:55 Clear 72 22.1 67 19.4 85 85 Calm 29.99 1016 10 16.0934 0 0
3:15 am 03:15 Clear 70 21 67 19.4 91 91 NNE 5 7 29.99 1016 10 16.0934 0 0
3:35 am 03:35 Clear 70 21.1 67 19.3 90 90 NE 5 7 29.99 1016 10 16.0934 0 0
3:55 am 03:55 Clear 69 20.7 66 19 90 90 NE 3 6 29.99 1016 10 16.0934 0 0
4:15 am 04:15 Clear 68 20.1 66 18.9 93 93 Calm 29.99 1016 10 16.0934 0 0
4:35 am 04:35 Clear 67 19.2 65 18.6 96 96 Calm 30 1016 10 16.0934 0 0
4:55 am 04:55 Clear 67 19.2 67 19.2 100 100 Calm 30 1016 10 16.0934 0 0
5:15 am 05:15 Clear 66 19.1 66 18.7 98 98 Calm 30 1016 10 16.0934 0 0
5:35 am 05:35 Clear 64 18 64 18 100 100 Calm 30 1016 10 16.0934 0 0
5:55 am 05:55 Clear 64 18 64 18 100 100 Calm 30.01 1016 10 16.0934 0 0
6:15 am 06:15 Clear 65 18.5 65 18.3 99 99 Calm 30.01 1016 10 16.0934 0 0
6:35 am 06:35 Clear 65 18.4 65 18.1 98 98 Calm 30.02 1017 10 16.0934 0 0
6:55 am 06:55 Clear 64 18 64 18 100 100 Calm 30.03 1017 10 16.0934 0 0
7:15 am 07:15 Sunny 64 18 N/A N/A Calm 30.03 1017 10 16.0934 0 0
7:35 am 07:35 Hazy 64 18 N/A N/A Calm 30.04 1017 5 8.0467 0 0
7:55 am 07:55 Sunny 64 18 N/A N/A Calm 30.04 1017 7 11.26538 0 0
8:15 am 08:15 Sunny 64 18 N/A N/A Calm 30.04 1017 10 16.0934 0 0
8:35 am 08:35 Sunny 68 20 68 19.9 99 99 S 5 7 30.04 1017 10 16.0934 0 0
8:55 am 08:55 Sunny 72 22.1 66 19.1 83 83 S 3 6 30.04 1017 10 16.0934 0 0
9:15 am 09:15 Sunny 73 22.5 66 18.7 79 79 S 8 13 30.04 1017 10 16.0934 0 0
9:35 am 09:35 Sunny 74 23.1 66 18.8 77 77 S 6 9 30.05 1018 10 16.0934 0 0
9:55 am 09:55 Sunny 76 24.2 66 18.7 71 71 S 6 9 30.04 1017 10 16.0934 0 0
10:15 am 10:15 Sunny 76 24.3 66 18.8 71 71 S 6 9 30.05 1018 10 16.0934 0 0
10:35 am 10:35 Sunny 77 25.2 66 18.9 68 68 SSW 6 9 30.06 1018 10 16.0934 0 0
10:55 am 10:55 Sunny 79 26.1 66 19.1 65 65 S 3 6 30.06 1018 10 16.0934 0 0
11:15 am 11:15 Sunny 80 26.8 67 19.2 63 63 WSW 5 7 30.07 1018 10 16.0934 0 0
11:35 am 11:35 Sunny 81 27.2 66 19.1 61 61 S 3 6 30.06 1018 10 16.0934 0 0
11:55 am 11:55 Sunny 82 27.8 67 19.2 60 60 SSW 6 9 30.06 1018 10 16.0934 0 0
12:15 pm 12:15 Sunny 82 28 66 19.1 58 58 Calm 30.07 1018 10 16.0934 0 0
12:35 pm 12:35 Sunny 84 28.8 67 19.2 56 56 S 6 9 30.05 1018 10 16.0934 0 0
12:55 pm 12:55 Sunny 85 29.5 67 19.5 55 55 SSW 7 11 30.05 1018 10 16.0934 0 0
1:15 pm 13:15 Sunny 86 29.9 67 19.5 54 54 SW 6 9 30.04 1017 10 16.0934 0 0
1:35 pm 13:35 Sunny 87 30.6 66 19.1 50 50 SSW 6 9 30.03 1017 10 16.0934 0 0
1:55 pm 13:55 Sunny 87 30.6 66 18.8 49 49 S 5 7 30.02 1017 10 16.0934 0 0
2:15 pm 14:15 Partly Cloudy 89 31.4 67 19.3 49 49 S 5 7 30.02 1017 10 16.0934 0 0
2:35 pm 14:35 Partly Cloudy 88 30.9 65 18.3 47 47 SSE 7 11 30.01 1016 10 16.0934 0 0
2:55 pm 14:55 Partly Cloudy 88 30.9 65 18.3 47 47 SSE 3 6 30.01 1016 10 16.0934 0 0
3:15 pm 15:15 Mostly Cloudy 89 31.6 65 18.4 45 45 SSW 6 9 30 1016 10 16.0934 0 0
3:35 pm 15:35 Partly Cloudy 89 31.9 64 17.7 43 43 S 9 15 30 1016 10 16.0934 0 0
3:55 pm 15:55 Sunny 89 31.9 64 17.8 43 43 S 6 9 30 1016 10 16.0934 0 0
4:15 pm 16:15 Sunny 91 32.5 65 18.2 43 43 S 10 17 30 1016 10 16.0934 0 0
4:35 pm 16:35 Sunny 88 31.3 64 17.8 44 44 S 3 6 30 1016 10 16.0934 0 0
4:55 pm 16:55 Sunny 87 30.7 64 17.8 46 46 S 6 9 30 1016 10 16.0934 0 0
5:15 pm 17:15 Sunny 89 31.8 64 18 44 44 S 8 13 30 1016 10 16.0934 0 0
5:35 pm 17:35 Sunny 89 31.9 64 18 44 44 S 10 17 30 1016 10 16.0934 0 0
5:55 pm 17:55 Sunny 88 31 65 18.3 47 47 SSW 8 13 30 1016 10 16.0934 0 0
6:15 pm 18:15 Partly Cloudy 87 30.5 64 17.9 47 47 S 7 11 30 1016 10 16.0934 0 0
6:35 pm 18:35 Partly Cloudy 87 30.8 65 18.1 47 47 S 8 13 30.01 1016 10 16.0934 0 0
6:55 pm 18:55 Mostly Cloudy 86 30 65 18.6 50 50 SE 8 13 30.02 1017 10 16.0934 0 0
7:15 pm 19:15 Sunny 85 29.6 65 18.6 52 52 SSE 7 11 30.02 1017 10 16.0934 0 0
7:35 pm 19:35 Sunny 84 28.9 66 18.7 54 54 SSE 6 9 30.02 1017 10 16.0934 0 0
7:55 pm 19:55 Sunny 83 28.3 66 18.9 57 57 SSE 6 9 30.03 1017 10 16.0934 0 0
8:15 pm 20:15 Clear 82 27.5 66 18.9 59 59 SSE 3 6 30.03 1017 10 16.0934 0 0
8:35 pm 20:35 Clear 81 27.3 66 18.9 60 60 S 7 11 30.04 1017 10 16.0934 0 0
8:55 pm 20:55 Clear 81 27.2 66 19 61 61 S 7 11 30.04 1017 10 16.0934 0 0
9:15 pm 21:15 Clear 80 26.7 66 18.9 62 62 S 6 9 30.05 1018 10 16.0934 0 0
9:35 pm 21:35 Clear 79 25.9 66 18.9 65 65 S 5 7 30.05 1018 10 16.0934 0 0
9:55 pm 21:55 Clear 74 23.5 67 19.5 78 78 Calm 30.06 1018 10 16.0934 0 0
10:15 pm 22:15 Clear 72 22.2 68 19.9 87 87 Calm 30.07 1018 10 16.0934 0 0
10:35 pm 22:35 Clear 71 21.6 67 19.2 86 86 Calm 30.07 1018 10 16.0934 0 0
10:55 pm 22:55 Clear 70 20.9 67 19.4 91 91 Calm 30.07 1018 10 16.0934 0 0
11:15 pm 23:15 Clear 68 19.9 66 19 95 95 Calm 30.09 1019 10 16.0934 0 0
11:35 pm 23:35 Clear 68 20 66 19.1 95 95 Calm 30.1 1019 10 16.0934 0 0
11:55 pm 23:55 Clear 67 19.6 66 19.1 97 97 Calm 30.11 1019 10 16.0934 0 0

Powered by AerisWeather